Lid_Strength_Index
1 1 4 2 3 3 3 3 5 7 6 4 3 2 2 2 1 1 1 2 2 2 3 2 2 1 1 1 1 1 1 0 0 0 -1 -1 -1 -1
1 1 1 2 3 3 3 3 4 4 6 4 3 2 2 1 1 1 1 2 1 2 2 2 2 2 2 2 2 1 1 2 2 1 1 0 -0 -0
1 2 2 3 2 3 3 3 3 4 5 4 3 3 3 2 2 1 1 1 2 2 1 2 3 3 3 3 2 1 2 2 2 2 1 1 1 0
2 2 2 1 2 2 3 3 3 3 4 5 4 3 3 3 2 2 1 0 2 2 2 3 4 5 4 4 3 3 4 3 3 3 2 2 1 0
2 2 2 2 3 3 4 3 3 2 3 4 4 3 3 3 3 2 2 3 2 2 3 4 4 4 4 4 4 4 6 6 5 5 3 3 2 1
2 2 2 2 2 3 3 3 3 3 3 4 4 4 4 3 3 3 4 3 3 1 3 3 3 4 5 5 4 4 6 6 6 6 5 5 4 3
2 1 1 2 4 3 3 3 3 3 4 5 5 4 5 4 5 3 4 3 3 2 3 3 3 3 3 4 2 3 6 6 6 6 6 6 6 6
2 2 2 5 5 6 6 4 3 3 4 4 4 5 5 4 4 3 4 4 5 1 2 2 0 1 1 1 4 6 6 6 6 6 6 6 7 6
2 3 4 4 5 5 7 7 7 5 4 3 4 4 4 3 3 4 3 4 4 3 2 3 1 2 1 1 6 7 7 7 7 6 7 7 7 7
2 3 3 5 5 5 4 4 4 3 3 2 2 3 2 2 2 2 3 3 3 2 3 5 2 2 1 2 6 7 8 7 7 7 7 7 8 8
2 2 3 3 8 9 4 3 4 4 7 8 5 7 7 6 3 2 3 3 4 3 2 4 4 2 1 2 3 7 8 8 7 7 7 7 8 8
4 4 7 3 11 10 3 3 4 4 3 3 4 6 5 6 6 2 3 3 4 5 3 4 4 2 4 2 2 3 5 7 7 8 8 8 8 5
4 5 6 11 12 12 7 3 3 3 4 2 3 3 2 3 3 2 2 2 3 4 3 3 4 4 3 3 3 2 2 4 4 5 9 8 9 6
3 4 9 13 13 12 7 10 11 6 2 2 3 2 3 3 2 2 2 2 1 2 2 2 4 3 4 5 4 3 3 2 2 2 2 5 9 9
3 8 13 13 13 11 12 12 10 3 3 3 3 3 2 2 2 2 2 2 2 1 0 2 2 3 3 4 4 4 3 2 2 2 2 2 2 4
10 8 8 8 8 9 7 6 3 2 2 2 3 2 2 3 3 3 3 3 3 3 2 1 1 2 3 3 3 4 3 3 2 1 2 1 1 1
6 4 4 4 4 4 4 3 2 2 2 2 2 2 2 3 3 3 3 3 4 4 3 1 2 2 2 3 4 4 3 3 2 2 2 2 1 1
4 4 4 3 3 4 4 3 3 3 2 2 2 2 3 2 2 2 3 4 4 4 3 3 2 3 3 2 3 3 3 3 2 2 2 3 3 3
3 3 3 3 3 3 3 3 4 3 2 2 2 2 2 2 3 3 2 3 3 3 3 2 3 3 5 6 3 6 2 2 2 2 2 3 3 5
3 3 3 3 3 3 3 3 2 2 2 2 2 2 2 2 3 3 3 3 4 4 4 3 3 4 4 4 4 3 12 3 2 3 3 6 10 11
3 3 3 3 3 3 3 2 2 2 3 2 2 2 2 3 3 4 3 8 7 4 4 4 3 10 3 3 5 4 4 8 6 4 5 4 6 6
3 2 3 3 3 3 3 2 3 3 3 2 3 3 3 2 3 3 3 4 5 4 3 3 3 3 2 3 4 3 3 3 6 7 8 6 6 6
3 3 3 2 2 2 2 2 2 2 2 3 3 2 2 3 3 2 3 3 3 3 3 3 3 3 4 5 7 7 7 7 9 9 8 7 7 7